Flag for Spain Weather past 2 weeks in Almería, Spain

Now
92 °F

Hot.


Feels Like: 92 °F
Forecast: 71 / 89 °F
Wind: 20 mph from East

Location: Almeria / Aeropuerto

Current Time: Aug 28, 2015 at 8:08:45 PM

Latest Report: Aug 28, 2015 at 7:00 PM


Visibility: N/A

Pressure: 29.93 "Hg

Humidity: 34%

Dew point: 60 °F

Location of AlmeríaLocation

Historic Weather in Almería — Graph

°F

Almería temperature yesterday

Maximum temperature yesterday: 86 °F (at 4:00 PM)
Minimum temperature yesterday: 73 °F (at 7:00 AM)
Average temperature yesterday: 80 °F

Past Weeks' High & Low Weather Summary

 TemperatureHumidityPressure
High96 °F (Aug 21, 4:00 PM)86% (Aug 23, 7:00 AM)30.13 "Hg (Aug 23, 7:00 AM)
Low67 °F (Aug 24, 7:00 AM)22% (Aug 21, 4:00 PM)29.78 "Hg (Aug 23, 7:00 PM)
Average80 °F63%29.95 "Hg
* Reported Aug 13 6:00 PM — Aug 28 6:00 PM, Almería, Weather by CustomWeather, © 2015

Note: Actual official high and low records may vary slightly from our data, if they occured in-between our weather recording intervals... More about our weather records

Advertising

Almería weather history for previous 24 hours

 ConditionsComfort  
Time TempWeatherWind HumidityBarometerVisibility
6:00 PM
Fri, Aug 28
92 °FHot.21 mph41%29.93 "HgN/A
5:00 PM94 °FPassing clouds.23 mph41%29.94 "Hg25 mi
4:00 PM93 °FExtremely hot.21 mph41%29.96 "HgN/A
3:00 PM92 °FHot.16 mph47%29.98 "HgN/A
2:00 PM91 °FPassing clouds.14 mph50%30.00 "Hg12 mi
1:00 PM88 °FHot.12 mph56%30.02 "HgN/A
12:00 PM88 °FHot.9 mph58%30.03 "HgN/A
11:00 AM86 °FScattered clouds.12 mph57%30.02 "Hg12 mi
10:00 AM82 °FWarm.9 mph67%30.01 "HgN/A
9:00 AM76 °FMild.No wind78%30.01 "HgN/A
8:00 AM74 °FPassing clouds.5 mph82%29.98 "Hg25 mi
7:00 AM74 °FMild.3 mph81%29.97 "HgN/A
5:00 AM75 °FPassing clouds.3 mph82%29.98 "Hg22 mi
4:00 AM75 °FMild.3 mph83%29.99 "HgN/A
3:00 AM76 °FMild.No wind81%30.00 "HgN/A
2:00 AM76 °FMild.No wind81%30.01 "HgN/A
1:00 AM77 °FMild.1 mph81%30.01 "HgN/A
12:00 AM77 °FWarm.2 mph78%30.01 "HgN/A
11:00 PM
Thu, Aug 27
77 °FWarm.1 mph79%30.01 "HgN/A
10:00 PM78 °FWarm.2 mph79%29.98 "HgN/A
9:00 PM78 °FWarm.3 mph77%29.96 "HgN/A
8:00 PM82 °FPassing clouds.6 mph69%29.95 "Hg16 mi
Weather by CustomWeather, © 2015

See weather overviewHow to use our weather pages